This is the latest recevied weather packets stored in our database for station/object OK1FET-15. If no packets are shown the sender has not sent any weather packets the latest 10 day(s).
| Time | Temp. | Humidity | Pressure | Rain* | Wind** | Luminosity | Snow |
|---|---|---|---|---|---|---|---|
| 1777616327 | 11.11° C | 60% | 1028.8 hPa | - | - | - | - |
| 1777616020 | 10.56° C | 61% | 1028.9 hPa | - | - | - | - |
| 1777615713 | 10° C | 63% | 1028.9 hPa | - | - | - | - |
| 1777615406 | 9.44° C | 66% | 1028.9 hPa | - | - | - | - |
| 1777615099 | 9.44° C | 70% | 1028.9 hPa | - | - | - | - |
| 1777614792 | 8.89° C | 71% | 1028.9 hPa | - | - | - | - |
| 1777614485 | 8.33° C | 73% | 1028.9 hPa | - | - | - | - |
| 1777614178 | 7.78° C | 74% | 1028.9 hPa | - | - | - | - |
| 1777613871 | 7.22° C | 74% | 1028.9 hPa | - | - | - | - |
| 1777613564 | 6.67° C | 74% | 1028.9 hPa | - | - | - | - |
| 1777613257 | 5.56° C | 74% | 1028.9 hPa | - | - | - | - |
| 1777612950 | 5.56° C | 73% | 1028.9 hPa | - | - | - | - |
| 1777612643 | 5° C | 71% | 1029 hPa | - | - | - | - |
| 1777612337 | 4.44° C | 71% | 1029 hPa | - | - | - | - |
| 1777612030 | 4.44° C | 69% | 1029 hPa | - | - | - | - |
| 1777611723 | 4.44° C | 72% | 1028.9 hPa | - | - | - | - |
| 1777611416 | 4.44° C | 71% | 1028.8 hPa | - | - | - | - |
| 1777611110 | 4.44° C | 72% | 1028.8 hPa | - | - | - | - |
| 1777610803 | 3.89° C | 72% | 1028.8 hPa | - | - | - | - |
| 1777610496 | 3.89° C | 71% | 1028.7 hPa | - | - | - | - |
| 1777610189 | 4.44° C | 69% | 1028.7 hPa | - | - | - | - |
| 1777609883 | 4.44° C | 68% | 1028.7 hPa | - | - | - | - |
| 1777609576 | 4.44° C | 68% | 1028.7 hPa | - | - | - | - |
| 1777609269 | 3.89° C | 71% | 1028.7 hPa | - | - | - | - |
| 1777608963 | 3.33° C | 74% | 1028.6 hPa | - | - | - | - |
* Rain since midnight (hover to see other rain measurements)
** Current wind speed in m/s (hover to see current wind gust speed)